When you browse on this site, cookies collect data to enhance your experience and personalize the content and advertising you see.
Visit our Privacy Policy to learn more. By continuing to use the site, you agree to this use of cookies and data.
  • In Netherlands
  • List of Countries
  • For 7 days
  • Water Temperature
  • Satellite Maps
  • Weather Map
  • Weather Widgets
  • user-avatar
    Login

    Hourly Weather Middlesbrough

    Today, 20 June, Thursday

    Time Temperature Precipitation Wind Pressure Humidity
    00:00 +9°C° 0 mm 3 mps 754 mmHg 87%
    01:00 +9°C° 0 mm 3 mps 754 mmHg 89%
    02:00 +8°C° 0 mm 4 mps 754 mmHg 90%
    03:00 +8°C° 0 mm 4 mps 754 mmHg 91%
    04:00 +10°C° 0 mm 4 mps 754 mmHg 91%
    05:00 +10°C° 0 mm 4 mps 754 mmHg 90%
    06:00 +11°C° 0 mm 4 mps 754 mmHg 90%
    07:00 +12°C° 0.2 mm 4 mps 754 mmHg 85%
    08:00 +13°C° 0.2 mm 5 mps 755 mmHg 81%
    09:00 +14°C° 0.2 mm 5 mps 755 mmHg 76%
    10:00 +15°C° 0.1 mm 5 mps 755 mmHg 72%
    11:00 +15°C° 0.1 mm 6 mps 755 mmHg 67%
    12:00 +16°C° 0.1 mm 6 mps 756 mmHg 63%
    13:00 +16°C° 0.1 mm 6 mps 756 mmHg 64%
    14:00 +16°C° 0.1 mm 6 mps 756 mmHg 66%
    15:00 +16°C° 0.1 mm 6 mps 756 mmHg 68%
    16:00 +15°C° 0.1 mm 6 mps 756 mmHg 70%
    17:00 +14°C° 0.1 mm 6 mps 756 mmHg 73%
    18:00 +14°C° 0.1 mm 6 mps 757 mmHg 76%
    19:00 +12°C° 0 mm 5 mps 757 mmHg 80%
    20:00 +11°C° 0 mm 4 mps 758 mmHg 84%
    21:00 +10°C° 0 mm 4 mps 758 mmHg 89%
    22:00 +8°C° 0 mm 4 mps 758 mmHg 89%
    23:00 +9°C° 0 mm 3 mps 759 mmHg 90%

    Tomorrow, 21 June, Friday

    Time Temperature Precipitation Wind Pressure Humidity
    00:00 +8°C° 0 mm 3 mps 759 mmHg 90%
    01:00 +8°C° 0 mm 3 mps 759 mmHg 90%
    02:00 +8°C° 0 mm 3 mps 759 mmHg 90%
    03:00 +7°C° 0 mm 3 mps 760 mmHg 91%
    04:00 +8°C° 0 mm 3 mps 760 mmHg 89%
    05:00 +9°C° 0 mm 3 mps 760 mmHg 86%
    06:00 +10°C° 0 mm 3 mps 760 mmHg 84%
    07:00 +11°C° 0 mm 3 mps 761 mmHg 79%
    08:00 +13°C° 0 mm 3 mps 761 mmHg 74%
    09:00 +14°C° 0 mm 3 mps 762 mmHg 69%
    10:00 +14°C° 0 mm 3 mps 762 mmHg 67%
    11:00 +16°C° 0 mm 3 mps 762 mmHg 65%
    12:00 +16°C° 0 mm 2 mps 762 mmHg 62%
    13:00 +17°C° 0 mm 2 mps 763 mmHg 62%
    14:00 +17°C° 0 mm 2 mps 763 mmHg 62%
    15:00 +17°C° 0 mm 2 mps 763 mmHg 61%
    16:00 +17°C° 0.1 mm 2 mps 763 mmHg 65%
    17:00 +17°C° 0.1 mm 3 mps 764 mmHg 68%
    18:00 +17°C° 0.1 mm 3 mps 764 mmHg 72%
    19:00 +15°C° 0 mm 2 mps 764 mmHg 77%
    20:00 +13°C° 0 mm 2 mps 764 mmHg 82%
    21:00 +10°C° 0 mm 2 mps 765 mmHg 87%
    22:00 +10°C° 0 mm 2 mps 765 mmHg 87%
    23:00 +10°C° 0 mm 1 mps 765 mmHg 88%

    Day after tomorrow, 22 June, Saturday

    Time Temperature Precipitation Wind Pressure Humidity
    00:00 +9°C° 0 mm 1 mps 765 mmHg 88%
    01:00 +9°C° 0 mm 1 mps 765 mmHg 88%
    02:00 +9°C° 0 mm 1 mps 765 mmHg 88%
    03:00 +8°C° 0 mm 1 mps 766 mmHg 88%
    04:00 +9°C° 0 mm 1 mps 766 mmHg 86%
    05:00 +10°C° 0 mm 1 mps 766 mmHg 84%
    06:00 +11°C° 0 mm 1 mps 766 mmHg 82%
    07:00 +13°C° 0 mm 1 mps 766 mmHg 76%
    08:00 +14°C° 0 mm 1 mps 766 mmHg 70%
    09:00 +16°C° 0 mm 1 mps 766 mmHg 63%
    10:00 +16°C° 0 mm 1 mps 766 mmHg 63%
    11:00 +17°C° 0 mm 2 mps 766 mmHg 63%
    12:00 +18°C° 0 mm 2 mps 766 mmHg 63%
    13:00 +18°C° 0 mm 2 mps 766 mmHg 65%
    14:00 +18°C° 0 mm 2 mps 765 mmHg 67%
    15:00 +18°C° 0 mm 3 mps 765 mmHg 69%
    16:00 +18°C° 0.1 mm 3 mps 765 mmHg 73%
    17:00 +18°C° 0.1 mm 3 mps 765 mmHg 77%
    18:00 +17°C° 0.1 mm 4 mps 765 mmHg 81%
    19:00 +15°C° 0 mm 4 mps 765 mmHg 83%
    20:00 +13°C° 0 mm 3 mps 766 mmHg 85%
    21:00 +12°C° 0 mm 3 mps 766 mmHg 88%
    22:00 +11°C° 0 mm 3 mps 766 mmHg 88%
    23:00 +12°C° 0 mm 2 mps 766 mmHg 88%

    23 June, Sunday

    Time Temperature Precipitation Wind Pressure Humidity
    00:00 +10°C° 0 mm 2 mps 766 mmHg 88%
    01:00 +9°C° 0 mm 2 mps 766 mmHg 89%
    02:00 +9°C° 0 mm 2 mps 766 mmHg 90%
    03:00 +10°C° 0 mm 1 mps 766 mmHg 90%
    04:00 +11°C° 0 mm 1 mps 766 mmHg 89%
    05:00 +12°C° 0 mm 1 mps 766 mmHg 88%
    06:00 +13°C° 0 mm 1 mps 766 mmHg 87%
    07:00 +14°C° 0 mm 2 mps 766 mmHg 84%
    08:00 +15°C° 0 mm 2 mps 766 mmHg 81%
    09:00 +16°C° 0 mm 3 mps 766 mmHg 78%
    10:00 +17°C° 0 mm 4 mps 766 mmHg 77%
    11:00 +18°C° 0 mm 4 mps 766 mmHg 76%
    12:00 +19°C° 0 mm 4 mps 766 mmHg 75%
    13:00 +19°C° 0 mm 5 mps 766 mmHg 75%
    14:00 +19°C° 0 mm 5 mps 766 mmHg 74%
    15:00 +19°C° 0 mm 5 mps 765 mmHg 74%
    16:00 +17°C° 0 mm 5 mps 765 mmHg 76%
    17:00 +17°C° 0 mm 5 mps 765 mmHg 78%
    18:00 +17°C° 0 mm 4 mps 765 mmHg 80%
    19:00 +15°C° 0 mm 4 mps 766 mmHg 84%
    20:00 +14°C° 0 mm 4 mps 766 mmHg 89%
    21:00 +12°C° 0 mm 3 mps 766 mmHg 93%
    22:00 +13°C° 0 mm 3 mps 766 mmHg 93%
    23:00 +13°C° 0 mm 3 mps 766 mmHg 94%

    24 June, Monday

    Time Temperature Precipitation Wind Pressure Humidity
    00:00 +13°C° 0 mm 3 mps 766 mmHg 94%
    01:00 +13°C° 0 mm 3 mps 765 mmHg 95%
    02:00 +13°C° 0 mm 3 mps 765 mmHg 95%
    03:00 +13°C° 0 mm 4 mps 765 mmHg 96%
    04:00 +13°C° 0 mm 4 mps 764 mmHg 93%
    05:00 +14°C° 0 mm 4 mps 764 mmHg 91%
    06:00 +15°C° 0 mm 4 mps 764 mmHg 88%
    07:00 +15°C° 0 mm 5 mps 764 mmHg 86%
    08:00 +16°C° 0 mm 6 mps 764 mmHg 85%
    09:00 +17°C° 0 mm 7 mps 763 mmHg 83%
    10:00 +17°C° 0.6 mm 6 mps 763 mmHg 87%
    11:00 +16°C° 0.6 mm 6 mps 763 mmHg 91%
    12:00 +16°C° 0.6 mm 5 mps 763 mmHg 94%
    13:00 +17°C° 0.1 mm 5 mps 763 mmHg 92%
    14:00 +19°C° 0.1 mm 4 mps 763 mmHg 91%
    15:00 +20°C° 0.1 mm 4 mps 763 mmHg 89%
    16:00 +20°C° 0.2 mm 3 mps 763 mmHg 89%
    17:00 +20°C° 0.2 mm 3 mps 763 mmHg 90%
    18:00 +20°C° 0.2 mm 3 mps 763 mmHg 91%
    19:00 +19°C° 0.2 mm 2 mps 763 mmHg 92%
    20:00 +19°C° 0.2 mm 2 mps 764 mmHg 94%
    21:00 +19°C° 0.2 mm 1 mps 764 mmHg 96%
    22:00 +19°C° 0 mm 1 mps 764 mmHg 96%
    23:00 +18°C° 0 mm 1 mps 764 mmHg 97%

    25 June, Tuesday

    Time Temperature Precipitation Wind Pressure Humidity
    00:00 +18°C° 0 mm 1 mps 765 mmHg 97%
    01:00 +17°C° 0 mm 2 mps 765 mmHg 97%
    02:00 +16°C° 0 mm 2 mps 765 mmHg 97%
    03:00 +16°C° 0 mm 2 mps 764 mmHg 97%
    04:00 +16°C° 0 mm 3 mps 764 mmHg 97%
    05:00 +15°C° 0 mm 4 mps 764 mmHg 97%
    06:00 +15°C° 0 mm 4 mps 764 mmHg 96%
    07:00 +15°C° 0 mm 5 mps 764 mmHg 96%
    08:00 +16°C° 0 mm 5 mps 765 mmHg 95%
    09:00 +16°C° 0 mm 5 mps 765 mmHg 95%
    10:00 +16°C° 0 mm 5 mps 765 mmHg 93%
    11:00 +17°C° 0 mm 6 mps 765 mmHg 90%
    12:00 +19°C° 0 mm 6 mps 765 mmHg 88%
    13:00 +19°C° 0 mm 6 mps 764 mmHg 87%
    14:00 +19°C° 0 mm 6 mps 764 mmHg 86%
    15:00 +19°C° 0 mm 6 mps 764 mmHg 85%
    16:00 +19°C° 0 mm 6 mps 763 mmHg 86%
    17:00 +17°C° 0 mm 6 mps 763 mmHg 87%
    18:00 +17°C° 0 mm 5 mps 763 mmHg 88%
    19:00 +16°C° 0 mm 5 mps 763 mmHg 90%
    20:00 +15°C° 0 mm 4 mps 764 mmHg 92%
    21:00 +14°C° 0 mm 4 mps 764 mmHg 94%
    22:00 +14°C° 0 mm 4 mps 764 mmHg 94%
    23:00 +13°C° 0 mm 4 mps 764 mmHg 95%
    Show more